sat.trackr.live / text

‹ back to catalog

STARLINK-30071

NORAD 56708 · 2023-067W

PAYLOAD ACTIVE UNKNOWN

§ Identity

Operator
Country
US
Launch date
2023-05-19
Launch site
AFETR
Launch vehicle
Mass (kg)
RCS (m²)

Purposes: comms

External: N2YO · Heavens-Above · Gunter

§ Orbital elements

Epoch: 2026-09-20T23:19:34.417632Z

Period
94.27 min
Inclination
43.0026°
Eccentricity
0.0001917
Mean motion
15.27575718 rev/d
Perigee alt
481.7 km
Apogee alt
484.4 km
Semi-major
6,861.2 km
B*
1.1006e-4
RAAN
251.8129°
Arg perigee
264.7829°
Mean anomaly
95.2804°
Rev number
18,552

§ Raw data

STARLINK-300711 56708U 23067W   26263.97192613  .00002767  00000+0  11006-3 0  99932 56708  43.0026 251.8129 0001917 264.7829  95.2804 15.27575718185524

JSON: /api/v1/satellites/56708 · /tle

For live sub-satellite position, see the globe view (requires WebGL).

§ Visibility from observer

Set your observer location to see the next 7 days of passes ≥ 10°. The values pass through the URL so the page stays shareable.

No JS? Fill the form by hand. The geolocation button needs JavaScript.